owner,sensor,date,latitude,longitude,vertical_datum,wind_speed,wind_to_direction,wind_speed_of_gust,qcFlag 
ADCP,ioos:station:wmo:42361:1,2008-06-06T18:00:00Z,27.5500,-92.4900,122.0,99.0,-9999.0,99.0,'11144222,99999999,11144222' 
ADCP,ioos:station:wmo:42361:1,2008-06-06T19:00:00Z,27.5500,-92.4900,122.0,99.0,-9999.0,99.0,'11144222,99999999,11144222' 
ADCP,ioos:station:wmo:42361:1,2008-06-06T20:00:00Z,27.5500,-92.4900,122.0,99.0,-9999.0,99.0,'11144222,99999999,11144222' 
ADCP,ioos:station:wmo:42361:1,2008-06-06T21:00:00Z,27.5500,-92.4900,122.0,99.0,-9999.0,99.0,'11144222,99999999,11144222' 
ADCP,ioos:station:wmo:42361:1,2008-06-06T22:00:00Z,27.5500,-92.4900,122.0,99.0,-9999.0,99.0,'11144222,99999999,11144222' 
ADCP,ioos:station:wmo:42361:1,2008-06-06T23:00:00Z,27.5500,-92.4900,122.0,99.0,-9999.0,99.0,'11144222,99999999,11144222' 
ADCP,ioos:station:wmo:42361:1,2008-06-07T00:00:00Z,27.5500,-92.4900,122.0,99.0,-9999.0,99.0,'11144222,99999999,11144222' 
ADCP,ioos:station:wmo:42361:1,2008-06-07T01:00:00Z,27.5500,-92.4900,122.0,99.0,-9999.0,99.0,'11144222,99999999,11144222' 
ADCP,ioos:station:wmo:42361:1,2008-06-07T02:00:00Z,27.5500,-92.4900,122.0,99.0,-9999.0,99.0,'11144222,99999999,11144222' 
ADCP,ioos:station:wmo:42361:1,2008-06-07T03:00:00Z,27.5500,-92.4900,122.0,99.0,-9999.0,99.0,'11144222,99999999,11144222' 
ADCP,ioos:station:wmo:42361:1,2008-06-07T04:00:00Z,27.5500,-92.4900,122.0,99.0,-9999.0,99.0,'11144222,99999999,11144222' 
ADCP,ioos:station:wmo:42361:1,2008-06-07T05:00:00Z,27.5500,-92.4900,122.0,99.0,-9999.0,99.0,'11144222,99999999,11144222' 
ADCP,ioos:station:wmo:42361:1,2008-06-07T06:15:00Z,27.5500,-92.4900,122.0,99.0,-9999.0,99.0,'11144222,99999999,11144222' 
ADCP,ioos:station:wmo:42361:1,2008-06-07T07:00:00Z,27.5500,-92.4900,122.0,99.0,-9999.0,99.0,'11144222,99999999,11144222' 
ADCP,ioos:station:wmo:42361:1,2008-06-07T08:00:00Z,27.5500,-92.4900,122.0,99.0,-9999.0,99.0,'11144222,99999999,11144222' 
ADCP,ioos:station:wmo:42361:1,2008-06-07T09:00:00Z,27.5500,-92.4900,122.0,99.0,-9999.0,99.0,'11144222,99999999,11144222' 
ADCP,ioos:station:wmo:42361:1,2008-06-07T10:00:00Z,27.5500,-92.4900,122.0,99.0,-9999.0,99.0,'11144222,99999999,11144222' 
ADCP,ioos:station:wmo:42361:1,2008-06-07T11:00:00Z,27.5500,-92.4900,122.0,99.0,-9999.0,99.0,'11144222,99999999,11144222' 
ADCP,ioos:station:wmo:42361:1,2008-06-07T12:00:00Z,27.5500,-92.4900,122.0,99.0,-9999.0,99.0,'11144222,99999999,11144222' 
ADCP,ioos:station:wmo:42361:1,2008-06-07T13:00:00Z,27.5500,-92.4900,122.0,99.0,-9999.0,99.0,'11144222,99999999,11144222' 
ADCP,ioos:station:wmo:42361:1,2008-06-07T14:00:00Z,27.5500,-92.4900,122.0,99.0,-9999.0,99.0,'11144222,99999999,11144222' 
ADCP,ioos:station:wmo:42361:1,2008-06-07T15:00:00Z,27.5500,-92.4900,122.0,99.0,-9999.0,99.0,'11144222,99999999,11144222' 
ADCP,ioos:station:wmo:42361:1,2008-06-07T16:00:00Z,27.5500,-92.4900,122.0,99.0,-9999.0,99.0,'11144222,99999999,11144222' 
ADCP,ioos:station:wmo:42361:1,2008-06-07T17:00:00Z,27.5500,-92.4900,122.0,99.0,-9999.0,99.0,'11144222,99999999,11144222' 
ADCP,ioos:station:wmo:42361:1,2008-06-07T18:00:00Z,27.5500,-92.4900,122.0,99.0,-9999.0,99.0,'11144222,99999999,11144222' 
ADCP,ioos:station:wmo:42361:1,2008-06-07T19:00:00Z,27.5500,-92.4900,122.0,99.0,-9999.0,99.0,'11144222,99999999,11144222' 
ADCP,ioos:station:wmo:42361:1,2008-06-07T20:00:00Z,27.5500,-92.4900,122.0,99.0,-9999.0,99.0,'11144222,99999999,11144222' 
ADCP,ioos:station:wmo:42361:1,2008-06-07T21:00:00Z,27.5500,-92.4900,122.0,99.0,-9999.0,99.0,'11144222,99999999,11144222' 
ADCP,ioos:station:wmo:42361:1,2008-06-07T22:00:00Z,27.5500,-92.4900,122.0,99.0,-9999.0,99.0,'11144222,99999999,11144222' 
ADCP,ioos:station:wmo:42361:1,2008-06-07T23:00:00Z,27.5500,-92.4900,122.0,99.0,-9999.0,99.0,'11144222,99999999,11144222' 
ADCP,ioos:station:wmo:42361:1,2008-06-08T00:00:00Z,27.5500,-92.4900,122.0,99.0,-9999.0,99.0,'11144222,99999999,11144222' 
ADCP,ioos:station:wmo:42361:1,2008-06-08T01:00:00Z,27.5500,-92.4900,122.0,99.0,-9999.0,99.0,'11144222,99999999,11144222' 
ADCP,ioos:station:wmo:42361:1,2008-06-08T02:00:00Z,27.5500,-92.4900,122.0,99.0,-9999.0,99.0,'11144222,99999999,11144222' 
ADCP,ioos:station:wmo:42361:1,2008-06-08T03:00:00Z,27.5500,-92.4900,122.0,99.0,-9999.0,99.0,'11144222,99999999,11144222' 
ADCP,ioos:station:wmo:42361:1,2008-06-08T04:00:00Z,27.5500,-92.4900,122.0,99.0,-9999.0,99.0,'11144222,99999999,11144222' 
ADCP,ioos:station:wmo:42361:1,2008-06-08T05:15:00Z,27.5500,-92.4900,122.0,99.0,-9999.0,99.0,'11144222,99999999,11144222' 
ADCP,ioos:station:wmo:42361:1,2008-06-08T06:00:00Z,27.5500,-92.4900,122.0,99.0,-9999.0,99.0,'11144222,99999999,11144222' 
ADCP,ioos:station:wmo:42361:1,2008-06-08T07:00:00Z,27.5500,-92.4900,122.0,99.0,-9999.0,99.0,'11144222,99999999,11144222' 
ADCP,ioos:station:wmo:42361:1,2008-06-08T08:00:00Z,27.5500,-92.4900,122.0,99.0,-9999.0,99.0,'11144222,99999999,11144222' 
ADCP,ioos:station:wmo:42361:1,2008-06-08T09:00:00Z,27.5500,-92.4900,122.0,99.0,-9999.0,99.0,'11144222,99999999,11144222' 
ADCP,ioos:station:wmo:42361:1,2008-06-08T10:15:00Z,27.5500,-92.4900,122.0,99.0,-9999.0,99.0,'11144222,99999999,11144222' 
ADCP,ioos:station:wmo:42361:1,2008-06-08T11:00:00Z,27.5500,-92.4900,122.0,99.0,-9999.0,99.0,'11144222,99999999,11144222' 
ADCP,ioos:station:wmo:42361:1,2008-06-08T12:00:00Z,27.5500,-92.4900,122.0,99.0,-9999.0,99.0,'11144222,99999999,11144222' 
ADCP,ioos:station:wmo:42361:1,2008-06-08T13:00:00Z,27.5500,-92.4900,122.0,99.0,-9999.0,99.0,'11144222,99999999,11144222' 
ADCP,ioos:station:wmo:42361:1,2008-06-08T14:00:00Z,27.5500,-92.4900,122.0,99.0,-9999.0,99.0,'11144222,99999999,11144222' 
ADCP,ioos:station:wmo:42361:1,2008-06-08T15:00:00Z,27.5500,-92.4900,122.0,99.0,-9999.0,99.0,'11144222,99999999,11144222' 
ADCP,ioos:station:wmo:42361:1,2008-06-08T16:00:00Z,27.5500,-92.4900,122.0,99.0,-9999.0,99.0,'11144222,99999999,11144222' 
ADCP,ioos:station:wmo:42361:1,2008-06-08T17:00:00Z,27.5500,-92.4900,122.0,99.0,-9999.0,99.0,'11144222,99999999,11144222' 
ADCP,ioos:station:wmo:42361:1,2008-06-08T18:00:00Z,27.5500,-92.4900,122.0,99.0,-9999.0,99.0,'11144222,99999999,11144222' 
ADCP,ioos:station:wmo:42361:1,2008-06-08T19:00:00Z,27.5500,-92.4900,122.0,99.0,-9999.0,99.0,'11144222,99999999,11144222' 
ADCP,ioos:station:wmo:42361:1,2008-06-08T20:00:00Z,27.5500,-92.4900,122.0,99.0,-9999.0,99.0,'11144222,99999999,11144222' 
ADCP,ioos:station:wmo:42361:1,2008-06-08T21:00:00Z,27.5500,-92.4900,122.0,99.0,-9999.0,99.0,'11144222,99999999,11144222' 
ADCP,ioos:station:wmo:42361:1,2008-06-08T22:00:00Z,27.5500,-92.4900,122.0,99.0,-9999.0,99.0,'11144222,99999999,11144222' 
ADCP,ioos:station:wmo:42361:1,2008-06-08T23:00:00Z,27.5500,-92.4900,122.0,99.0,-9999.0,99.0,'11144222,99999999,11144222' 
ADCP,ioos:station:wmo:42361:1,2008-06-09T00:00:00Z,27.5500,-92.4900,122.0,99.0,-9999.0,99.0,'11144222,99999999,11144222' 
ADCP,ioos:station:wmo:42361:1,2008-06-09T01:15:00Z,27.5500,-92.4900,122.0,99.0,-9999.0,99.0,'11144222,99999999,11144222' 
ADCP,ioos:station:wmo:42361:1,2008-06-09T02:00:00Z,27.5500,-92.4900,122.0,99.0,-9999.0,99.0,'11144222,99999999,11144222' 
ADCP,ioos:station:wmo:42361:1,2008-06-09T03:00:00Z,27.5500,-92.4900,122.0,99.0,-9999.0,99.0,'11144222,99999999,11144222' 
ADCP,ioos:station:wmo:42361:1,2008-06-09T04:00:00Z,27.5500,-92.4900,122.0,99.0,-9999.0,99.0,'11144222,99999999,11144222' 
ADCP,ioos:station:wmo:42361:1,2008-06-09T05:00:00Z,27.5500,-92.4900,122.0,99.0,-9999.0,99.0,'11144222,99999999,11144222' 
ADCP,ioos:station:wmo:42361:1,2008-06-09T06:00:00Z,27.5500,-92.4900,122.0,99.0,-9999.0,99.0,'11144222,99999999,11144222' 
ADCP,ioos:station:wmo:42361:1,2008-06-09T07:00:00Z,27.5500,-92.4900,122.0,99.0,-9999.0,99.0,'11144222,99999999,11144222' 
ADCP,ioos:station:wmo:42361:1,2008-06-09T08:00:00Z,27.5500,-92.4900,122.0,99.0,-9999.0,99.0,'11144222,99999999,11144222' 
ADCP,ioos:station:wmo:42361:1,2008-06-09T09:00:00Z,27.5500,-92.4900,122.0,99.0,-9999.0,99.0,'11144222,99999999,11144222' 
ADCP,ioos:station:wmo:42361:1,2008-06-09T10:00:00Z,27.5500,-92.4900,122.0,99.0,-9999.0,99.0,'11144222,99999999,11144222' 
ADCP,ioos:station:wmo:42361:1,2008-06-09T11:00:00Z,27.5500,-92.4900,122.0,99.0,-9999.0,99.0,'11144222,99999999,11144222' 
ADCP,ioos:station:wmo:42361:1,2008-06-09T12:00:00Z,27.5500,-92.4900,122.0,99.0,-9999.0,99.0,'11144222,99999999,11144222' 
ADCP,ioos:station:wmo:42361:1,2008-06-09T13:00:00Z,27.5500,-92.4900,122.0,99.0,-9999.0,99.0,'11144222,99999999,11144222' 
ADCP,ioos:station:wmo:42361:1,2008-06-09T14:00:00Z,27.5500,-92.4900,122.0,99.0,-9999.0,99.0,'11144222,99999999,11144222' 
ADCP,ioos:station:wmo:42361:1,2008-06-09T15:00:00Z,27.5500,-92.4900,122.0,99.0,-9999.0,99.0,'11144222,99999999,11144222' 
ADCP,ioos:station:wmo:42361:1,2008-06-09T16:00:00Z,27.5500,-92.4900,122.0,99.0,-9999.0,99.0,'11144222,99999999,11144222' 
ADCP,ioos:station:wmo:42361:1,2008-06-09T17:00:00Z,27.5500,-92.4900,122.0,99.0,-9999.0,99.0,'11144222,99999999,11144222' 
ADCP,ioos:station:wmo:42361:1,2008-06-09T18:00:00Z,27.5500,-92.4900,122.0,99.0,-9999.0,99.0,'11144222,99999999,11144222' 
ADCP,ioos:station:wmo:42361:1,2008-06-09T19:00:00Z,27.5500,-92.4900,122.0,99.0,-9999.0,99.0,'11144222,99999999,11144222' 
ADCP,ioos:station:wmo:42361:1,2008-06-09T20:00:00Z,27.5500,-92.4900,122.0,99.0,-9999.0,99.0,'11144222,99999999,11144222' 
ADCP,ioos:station:wmo:42361:1,2008-06-09T21:00:00Z,27.5500,-92.4900,122.0,99.0,-9999.0,99.0,'11144222,99999999,11144222' 
ADCP,ioos:station:wmo:42361:1,2008-06-09T22:00:00Z,27.5500,-92.4900,122.0,99.0,-9999.0,99.0,'11144222,99999999,11144222' 
ADCP,ioos:station:wmo:42361:1,2008-06-09T23:00:00Z,27.5500,-92.4900,122.0,99.0,-9999.0,99.0,'11144222,99999999,11144222' 
ADCP,ioos:station:wmo:42361:1,2008-06-10T00:00:00Z,27.5500,-92.4900,122.0,99.0,-9999.0,99.0,'11144222,99999999,11144222' 
ADCP,ioos:station:wmo:42361:1,2008-06-10T01:00:00Z,27.5500,-92.4900,122.0,99.0,-9999.0,99.0,'11144222,99999999,11144222' 
ADCP,ioos:station:wmo:42361:1,2008-06-10T02:00:00Z,27.5500,-92.4900,122.0,99.0,-9999.0,99.0,'11144222,99999999,11144222' 
ADCP,ioos:station:wmo:42361:1,2008-06-10T03:00:00Z,27.5500,-92.4900,122.0,99.0,-9999.0,99.0,'11144222,99999999,11144222' 
ADCP,ioos:station:wmo:42361:1,2008-06-10T04:00:00Z,27.5500,-92.4900,122.0,99.0,-9999.0,99.0,'11144222,99999999,11144222' 
ADCP,ioos:station:wmo:42361:1,2008-06-10T05:00:00Z,27.5500,-92.4900,122.0,99.0,-9999.0,99.0,'11144222,99999999,11144222' 
ADCP,ioos:station:wmo:42361:1,2008-06-10T06:00:00Z,27.5500,-92.4900,122.0,99.0,-9999.0,99.0,'11144222,99999999,11144222' 
ADCP,ioos:station:wmo:42361:1,2008-06-10T07:00:00Z,27.5500,-92.4900,122.0,99.0,-9999.0,99.0,'11144222,99999999,11144222' 
ADCP,ioos:station:wmo:42361:1,2008-06-10T08:00:00Z,27.5500,-92.4900,122.0,99.0,-9999.0,99.0,'11144222,99999999,11144222' 
ADCP,ioos:station:wmo:42361:1,2008-06-10T09:00:00Z,27.5500,-92.4900,122.0,99.0,-9999.0,99.0,'11144222,99999999,11144222' 
ADCP,ioos:station:wmo:42361:1,2008-06-10T10:00:00Z,27.5500,-92.4900,122.0,99.0,-9999.0,99.0,'11144222,99999999,11144222' 
ADCP,ioos:station:wmo:42361:1,2008-06-10T11:00:00Z,27.5500,-92.4900,122.0,99.0,-9999.0,99.0,'11144222,99999999,11144222' 
ADCP,ioos:station:wmo:42361:1,2008-06-10T12:00:00Z,27.5500,-92.4900,122.0,99.0,-9999.0,99.0,'11144222,99999999,11144222' 
ADCP,ioos:station:wmo:42361:1,2008-06-10T13:00:00Z,27.5500,-92.4900,122.0,99.0,-9999.0,99.0,'11144222,99999999,11144222' 
ADCP,ioos:station:wmo:42361:1,2008-06-10T14:00:00Z,27.5500,-92.4900,122.0,99.0,-9999.0,99.0,'11144222,99999999,11144222' 
ADCP,ioos:station:wmo:42361:1,2008-06-10T15:00:00Z,27.5500,-92.4900,122.0,99.0,-9999.0,99.0,'11144222,99999999,11144222' 
ADCP,ioos:station:wmo:42361:1,2008-06-10T16:00:00Z,27.5500,-92.4900,122.0,99.0,-9999.0,99.0,'11144222,99999999,11144222' 
ADCP,ioos:station:wmo:42361:1,2008-06-10T17:00:00Z,27.5500,-92.4900,122.0,99.0,-9999.0,99.0,'11144222,99999999,11144222' 
ADCP,ioos:station:wmo:42361:1,2008-06-10T18:00:00Z,27.5500,-92.4900,122.0,99.0,-9999.0,99.0,'11144222,99999999,11144222' 
ADCP,ioos:station:wmo:42361:1,2008-06-10T19:00:00Z,27.5500,-92.4900,122.0,99.0,-9999.0,99.0,'11144222,99999999,11144222' 
ADCP,ioos:station:wmo:42361:1,2008-06-10T20:00:00Z,27.5500,-92.4900,122.0,99.0,-9999.0,99.0,'11144222,99999999,11144222' 
ADCP,ioos:station:wmo:42361:1,2008-06-10T21:00:00Z,27.5500,-92.4900,122.0,99.0,-9999.0,99.0,'11144222,99999999,11144222' 
ADCP,ioos:station:wmo:42361:1,2008-06-10T22:00:00Z,27.5500,-92.4900,122.0,99.0,-9999.0,99.0,'11144222,99999999,11144222' 
ADCP,ioos:station:wmo:42361:1,2008-06-10T23:00:00Z,27.5500,-92.4900,122.0,99.0,-9999.0,99.0,'11144222,99999999,11144222' 
ADCP,ioos:station:wmo:42361:1,2008-06-11T00:00:00Z,27.5500,-92.4900,122.0,99.0,-9999.0,99.0,'11144222,99999999,11144222' 
ADCP,ioos:station:wmo:42361:1,2008-06-11T01:00:00Z,27.5500,-92.4900,122.0,99.0,-9999.0,99.0,'11144222,99999999,11144222' 
ADCP,ioos:station:wmo:42361:1,2008-06-11T02:00:00Z,27.5500,-92.4900,122.0,99.0,-9999.0,99.0,'11144222,99999999,11144222' 
ADCP,ioos:station:wmo:42361:1,2008-06-11T03:00:00Z,27.5500,-92.4900,122.0,99.0,-9999.0,99.0,'11144222,99999999,11144222' 
ADCP,ioos:station:wmo:42361:1,2008-06-11T04:00:00Z,27.5500,-92.4900,122.0,99.0,-9999.0,99.0,'11144222,99999999,11144222' 
ADCP,ioos:station:wmo:42361:1,2008-06-11T05:00:00Z,27.5500,-92.4900,122.0,99.0,-9999.0,99.0,'11144222,99999999,11144222' 
ADCP,ioos:station:wmo:42361:1,2008-06-11T06:00:00Z,27.5500,-92.4900,122.0,99.0,-9999.0,99.0,'11144222,99999999,11144222' 
ADCP,ioos:station:wmo:42361:1,2008-06-11T07:00:00Z,27.5500,-92.4900,122.0,99.0,-9999.0,99.0,'11144222,99999999,11144222' 
ADCP,ioos:station:wmo:42361:1,2008-06-11T08:00:00Z,27.5500,-92.4900,122.0,99.0,-9999.0,99.0,'11144222,99999999,11144222' 
ADCP,ioos:station:wmo:42361:1,2008-06-11T09:15:00Z,27.5500,-92.4900,122.0,99.0,-9999.0,99.0,'11144222,99999999,11144222' 
ADCP,ioos:station:wmo:42361:1,2008-06-11T10:00:00Z,27.5500,-92.4900,122.0,99.0,-9999.0,99.0,'11144222,99999999,11144222' 
ADCP,ioos:station:wmo:42361:1,2008-06-11T11:00:00Z,27.5500,-92.4900,122.0,99.0,-9999.0,99.0,'11144222,99999999,11144222' 
ADCP,ioos:station:wmo:42361:1,2008-06-11T12:00:00Z,27.5500,-92.4900,122.0,99.0,-9999.0,99.0,'11144222,99999999,11144222' 
ADCP,ioos:station:wmo:42361:1,2008-06-11T13:00:00Z,27.5500,-92.4900,122.0,99.0,-9999.0,99.0,'11144222,99999999,11144222' 
ADCP,ioos:station:wmo:42361:1,2008-06-11T14:00:00Z,27.5500,-92.4900,122.0,99.0,-9999.0,99.0,'11144222,99999999,11144222' 
ADCP,ioos:station:wmo:42361:1,2008-06-11T15:00:00Z,27.5500,-92.4900,122.0,99.0,-9999.0,99.0,'11144222,99999999,11144222' 
ADCP,ioos:station:wmo:42361:1,2008-06-11T16:00:00Z,27.5500,-92.4900,122.0,99.0,-9999.0,99.0,'11144222,99999999,11144222' 
ADCP,ioos:station:wmo:42361:1,2008-06-11T17:00:00Z,27.5500,-92.4900,122.0,99.0,-9999.0,99.0,'11144222,99999999,11144222' 
ADCP,ioos:station:wmo:42361:1,2008-06-11T18:00:00Z,27.5500,-92.4900,122.0,99.0,-9999.0,99.0,'11144222,99999999,11144222' 
ADCP,ioos:station:wmo:42361:1,2008-06-11T19:00:00Z,27.5500,-92.4900,122.0,99.0,-9999.0,99.0,'11144222,99999999,11144222' 
ADCP,ioos:station:wmo:42361:1,2008-06-11T20:00:00Z,27.5500,-92.4900,122.0,99.0,-9999.0,99.0,'11144222,99999999,11144222' 
ADCP,ioos:station:wmo:42361:1,2008-06-11T21:00:00Z,27.5500,-92.4900,122.0,99.0,-9999.0,99.0,'11144222,99999999,11144222' 
ADCP,ioos:station:wmo:42361:1,2008-06-11T22:00:00Z,27.5500,-92.4900,122.0,99.0,-9999.0,99.0,'11144222,99999999,11144222' 
ADCP,ioos:station:wmo:42361:1,2008-06-11T23:00:00Z,27.5500,-92.4900,122.0,99.0,-9999.0,99.0,'11144222,99999999,11144222' 
ADCP,ioos:station:wmo:42361:1,2008-06-12T00:00:00Z,27.5500,-92.4900,122.0,99.0,-9999.0,99.0,'11144222,99999999,11144222' 
ADCP,ioos:station:wmo:42361:1,2008-06-12T01:15:00Z,27.5500,-92.4900,122.0,99.0,-9999.0,99.0,'11144222,99999999,11144222' 
ADCP,ioos:station:wmo:42361:1,2008-06-12T02:00:00Z,27.5500,-92.4900,122.0,99.0,-9999.0,99.0,'11144222,99999999,11144222' 
ADCP,ioos:station:wmo:42361:1,2008-06-12T03:00:00Z,27.5500,-92.4900,122.0,99.0,-9999.0,99.0,'11144222,99999999,11144222' 
ADCP,ioos:station:wmo:42361:1,2008-06-12T04:00:00Z,27.5500,-92.4900,122.0,99.0,-9999.0,99.0,'11144222,99999999,11144222' 
ADCP,ioos:station:wmo:42361:1,2008-06-12T05:00:00Z,27.5500,-92.4900,122.0,99.0,-9999.0,99.0,'11144222,99999999,11144222' 
ADCP,ioos:station:wmo:42361:1,2008-06-12T06:00:00Z,27.5500,-92.4900,122.0,99.0,-9999.0,99.0,'11144222,99999999,11144222' 
ADCP,ioos:station:wmo:42361:1,2008-06-12T07:00:00Z,27.5500,-92.4900,122.0,99.0,-9999.0,99.0,'11144222,99999999,11144222' 
ADCP,ioos:station:wmo:42361:1,2008-06-12T08:00:00Z,27.5500,-92.4900,122.0,99.0,-9999.0,99.0,'11144222,99999999,11144222' 
ADCP,ioos:station:wmo:42361:1,2008-06-12T09:00:00Z,27.5500,-92.4900,122.0,99.0,-9999.0,99.0,'11144222,99999999,11144222' 
ADCP,ioos:station:wmo:42361:1,2008-06-12T10:00:00Z,27.5500,-92.4900,122.0,99.0,-9999.0,99.0,'11144222,99999999,11144222' 
ADCP,ioos:station:wmo:42361:1,2008-06-12T11:00:00Z,27.5500,-92.4900,122.0,99.0,-9999.0,99.0,'11144222,99999999,11144222' 
ADCP,ioos:station:wmo:42361:1,2008-06-12T12:00:00Z,27.5500,-92.4900,122.0,99.0,-9999.0,99.0,'11144222,99999999,11144222' 
ADCP,ioos:station:wmo:42361:1,2008-06-12T14:00:00Z,27.5500,-92.4900,122.0,99.0,-9999.0,99.0,'11144222,99999999,11144222' 
ADCP,ioos:station:wmo:42361:1,2008-06-12T15:00:00Z,27.5500,-92.4900,122.0,99.0,-9999.0,99.0,'11144222,99999999,11144222' 
ADCP,ioos:station:wmo:42361:1,2008-06-12T16:00:00Z,27.5500,-92.4900,122.0,99.0,-9999.0,99.0,'11144222,99999999,11144222' 
ADCP,ioos:station:wmo:42361:1,2008-06-12T17:00:00Z,27.5500,-92.4900,122.0,99.0,-9999.0,99.0,'11144222,99999999,11144222' 
ADCP,ioos:station:wmo:42361:1,2008-06-12T18:00:00Z,27.5500,-92.4900,122.0,99.0,-9999.0,99.0,'11144222,99999999,11144222' 
ADCP,ioos:station:wmo:42361:1,2008-06-12T19:00:00Z,27.5500,-92.4900,122.0,9.0,110.0,99.0,'11111222,11111222,11144222' 
ADCP,ioos:station:wmo:42361:1,2008-06-12T20:00:00Z,27.5500,-92.4900,122.0,9.0,120.0,99.0,'11111222,11111222,11144222' 
ADCP,ioos:station:wmo:42361:1,2008-06-12T21:00:00Z,27.5500,-92.4900,122.0,10.0,120.0,99.0,'11111222,11111222,11144222' 
ADCP,ioos:station:wmo:42361:1,2008-06-12T22:00:00Z,27.5500,-92.4900,122.0,10.0,110.0,99.0,'11111222,11111222,11144222' 
ADCP,ioos:station:wmo:42361:1,2008-06-12T23:00:00Z,27.5500,-92.4900,122.0,10.0,110.0,99.0,'11111222,11111222,11144222' 
ADCP,ioos:station:wmo:42361:1,2008-06-13T00:00:00Z,27.5500,-92.4900,122.0,8.0,100.0,99.0,'11111222,11111222,11144222' 
ADCP,ioos:station:wmo:42361:1,2008-06-13T01:15:00Z,27.5500,-92.4900,122.0,11.0,120.0,99.0,'11111222,11111222,11144222' 
ADCP,ioos:station:wmo:42361:1,2008-06-13T02:30:00Z,27.5500,-92.4900,122.0,10.0,70.0,99.0,'11111222,11111222,11144222' 
ADCP,ioos:station:wmo:42361:1,2008-06-13T03:00:00Z,27.5500,-92.4900,122.0,10.0,50.0,99.0,'11111222,11111222,11144222' 
ADCP,ioos:station:wmo:42361:1,2008-06-13T04:30:00Z,27.5500,-92.4900,122.0,12.0,90.0,99.0,'11111222,11111222,11144222' 
ADCP,ioos:station:wmo:42361:1,2008-06-13T05:00:00Z,27.5500,-92.4900,122.0,12.0,110.0,99.0,'11111222,11111222,11144222' 
ADCP,ioos:station:wmo:42361:1,2008-06-13T07:00:00Z,27.5500,-92.4900,122.0,10.0,130.0,99.0,'11111222,11111222,11144222' 
ADCP,ioos:station:wmo:42361:1,2008-06-13T08:00:00Z,27.5500,-92.4900,122.0,9.0,70.0,99.0,'11111222,11111222,11144222' 
ADCP,ioos:station:wmo:42361:1,2008-06-13T09:15:00Z,27.5500,-92.4900,122.0,8.0,120.0,99.0,'11111222,11111222,11144222' 
ADCP,ioos:station:wmo:42361:1,2008-06-13T10:15:00Z,27.5500,-92.4900,122.0,9.0,110.0,99.0,'11111222,11111222,11144222' 
ADCP,ioos:station:wmo:42361:1,2008-06-13T12:00:00Z,27.5500,-92.4900,122.0,8.0,130.0,99.0,'11111222,11111222,11144222' 
ADCP,ioos:station:wmo:42361:1,2008-06-13T14:30:00Z,27.5500,-92.4900,122.0,6.0,120.0,99.0,'11111222,11111222,11144222' 
ADCP,ioos:station:wmo:42361:1,2008-06-13T15:00:00Z,27.5500,-92.4900,122.0,6.0,120.0,99.0,'11111222,11111222,11144222' 
ADCP,ioos:station:wmo:42361:1,2008-06-13T16:00:00Z,27.5500,-92.4900,122.0,7.0,120.0,99.0,'11111222,11111222,11144222' 
ADCP,ioos:station:wmo:42361:1,2008-06-13T17:00:00Z,27.5500,-92.4900,122.0,6.0,200.0,99.0,'11111222,11111222,11144222' 
ADCP,ioos:station:wmo:42361:1,2008-06-13T18:00:00Z,27.5500,-92.4900,122.0,7.0,100.0,99.0,'11111222,11111222,11144222' 
ADCP,ioos:station:wmo:42361:1,2008-06-13T19:00:00Z,27.5500,-92.4900,122.0,9.0,120.0,99.0,'11111222,11111222,11144222' 
ADCP,ioos:station:wmo:42361:1,2008-06-13T20:15:00Z,27.5500,-92.4900,122.0,3.0,70.0,99.0,'11111222,11111222,11144222' 
ADCP,ioos:station:wmo:42361:1,2008-06-13T21:00:00Z,27.5500,-92.4900,122.0,5.0,120.0,99.0,'11111222,11111222,11144222' 
ADCP,ioos:station:wmo:42361:1,2008-06-13T22:00:00Z,27.5500,-92.4900,122.0,14.0,170.0,99.0,'11111222,11111222,11144222' 
ADCP,ioos:station:wmo:42361:1,2008-06-13T23:00:00Z,27.5500,-92.4900,122.0,8.0,180.0,99.0,'11111222,11111222,11144222' 
ADCP,ioos:station:wmo:42361:1,2008-06-14T00:00:00Z,27.5500,-92.4900,122.0,5.0,150.0,99.0,'11111222,11111222,11144222' 
ADCP,ioos:station:wmo:42361:1,2008-06-14T01:00:00Z,27.5500,-92.4900,122.0,4.0,150.0,99.0,'11111222,11111222,11144222' 
ADCP,ioos:station:wmo:42361:1,2008-06-14T02:00:00Z,27.5500,-92.4900,122.0,4.0,140.0,99.0,'11111222,11111222,11144222' 
ADCP,ioos:station:wmo:42361:1,2008-06-14T03:00:00Z,27.5500,-92.4900,122.0,5.0,120.0,99.0,'11111222,11111222,11144222' 
ADCP,ioos:station:wmo:42361:1,2008-06-14T04:00:00Z,27.5500,-92.4900,122.0,5.0,110.0,99.0,'11111222,11111222,11144222' 
ADCP,ioos:station:wmo:42361:1,2008-06-14T05:00:00Z,27.5500,-92.4900,122.0,5.0,110.0,99.0,'11111222,11111222,11144222' 
ADCP,ioos:station:wmo:42361:1,2008-06-14T06:00:00Z,27.5500,-92.4900,122.0,5.0,110.0,99.0,'11111222,11111222,11144222' 
ADCP,ioos:station:wmo:42361:1,2008-06-14T07:15:00Z,27.5500,-92.4900,122.0,7.0,110.0,99.0,'11111222,11111222,11144222' 
ADCP,ioos:station:wmo:42361:1,2008-06-14T08:00:00Z,27.5500,-92.4900,122.0,6.0,110.0,99.0,'11111222,11111222,11144222' 
ADCP,ioos:station:wmo:42361:1,2008-06-14T09:15:00Z,27.5500,-92.4900,122.0,7.0,110.0,99.0,'11111222,11111222,11144222' 
ADCP,ioos:station:wmo:42361:1,2008-06-14T11:15:00Z,27.5500,-92.4900,122.0,6.0,120.0,99.0,'11111222,11111222,11144222' 
ADCP,ioos:station:wmo:42361:1,2008-06-14T12:15:00Z,27.5500,-92.4900,122.0,8.0,120.0,99.0,'11111222,11111222,11144222' 
ADCP,ioos:station:wmo:42361:1,2008-06-14T13:15:00Z,27.5500,-92.4900,122.0,6.0,100.0,99.0,'11111222,11111222,11144222' 
ADCP,ioos:station:wmo:42361:1,2008-06-14T14:00:00Z,27.5500,-92.4900,122.0,5.0,100.0,99.0,'11111222,11111222,11144222' 
ADCP,ioos:station:wmo:42361:1,2008-06-14T15:15:00Z,27.5500,-92.4900,122.0,6.0,120.0,99.0,'11111222,11111222,11144222' 
ADCP,ioos:station:wmo:42361:1,2008-06-14T16:30:00Z,27.5500,-92.4900,122.0,5.0,120.0,99.0,'11111222,11111222,11144222' 
ADCP,ioos:station:wmo:42361:1,2008-06-14T18:15:00Z,27.5500,-92.4900,122.0,3.0,120.0,99.0,'11111222,11111222,11144222' 
ADCP,ioos:station:wmo:42361:1,2008-06-14T19:00:00Z,27.5500,-92.4900,122.0,3.0,120.0,99.0,'11111222,11111222,11144222' 
ADCP,ioos:station:wmo:42361:1,2008-06-14T20:15:00Z,27.5500,-92.4900,122.0,2.0,140.0,99.0,'11111222,11111222,11144222' 
ADCP,ioos:station:wmo:42361:1,2008-06-14T21:00:00Z,27.5500,-92.4900,122.0,3.0,140.0,99.0,'11111222,11111222,11144222' 
ADCP,ioos:station:wmo:42361:1,2008-06-14T22:00:00Z,27.5500,-92.4900,122.0,3.0,140.0,99.0,'11111222,11111222,11144222' 
ADCP,ioos:station:wmo:42361:1,2008-06-14T23:15:00Z,27.5500,-92.4900,122.0,2.0,130.0,99.0,'11111222,11111222,11144222' 
ADCP,ioos:station:wmo:42361:1,2008-06-15T00:00:00Z,27.5500,-92.4900,122.0,2.0,140.0,99.0,'11111222,11111222,11144222' 
ADCP,ioos:station:wmo:42361:1,2008-06-15T01:00:00Z,27.5500,-92.4900,122.0,2.0,120.0,99.0,'11111222,11111222,11144222' 
ADCP,ioos:station:wmo:42361:1,2008-06-15T02:00:00Z,27.5500,-92.4900,122.0,3.0,130.0,99.0,'11111222,11111222,11144222' 
ADCP,ioos:station:wmo:42361:1,2008-06-15T04:00:00Z,27.5500,-92.4900,122.0,4.0,140.0,99.0,'11111222,11111222,11144222' 
ADCP,ioos:station:wmo:42361:1,2008-06-15T06:30:00Z,27.5500,-92.4900,122.0,6.0,160.0,99.0,'11111222,11111222,11144222' 